< < Back
Terminal Aerodrome Forecast


Current Version              Previous Versions:   1  2  3  4  5  6  7  8  9  

Terminal Aerodrome Forecast

192
FTUS44 KOHX 042320
TAFCSV
TAF
KCSV 042320Z 0500/0524 00000KT P6SM SKC
     FM050800 00000KT 4SM BR SKC
      TEMPO 0509/0513 2SM BR
     FM051400 07005KT P6SM SCT060=

Latest METAR

425
SAUS70 KWBC 050400 RRK
MTRCSV
METAR KCSV 050353Z AUTO 00000KT 8SM CLR 22/19 A3013 RMK AO2 SLP178
T02220189


USA.gov is the U.S. government's official web portal to all federal, state and local government web resources and services.